Location: Unspecified
(0.0000°N, 0.0000°E)
Time: 07:44:05
(UTC+00:00)

Envisat - Visible Passes

Search period start: 01 December 2022 00:00
Search period end: 11 December 2022 00:00
Orbit: 763 x 765 km, 98.2° (Epoch: 30 November)

Date Brightness Start Highest point End Pass type
(mag) Time Alt. Az. Time Alt. Az. Time Alt. Az.
01 Dec 3.1 04:14:08 50° WNW 04:14:16 51° WNW 04:19:11 10° SSW visible
02 Dec 3.6 03:36:48 52° ENE 03:37:22 55° ESE 03:42:19 10° S visible
03 Dec 5.3 02:59:27 18° E 03:00:31 19° ESE 03:04:03 10° SSE visible
03 Dec 4.0 04:39:38 24° W 04:39:38 24° W 04:43:19 10° SW visible
04 Dec 2.8 04:02:19 72° WNW 04:02:20 72° WNW 04:07:24 10° SSW visible
05 Dec 4.2 03:24:58 38° E 03:25:27 39° ESE 03:30:10 10° S visible
05 Dec 4.8 05:05:09 11° W 05:05:09 11° W 05:05:54 10° W visible
06 Dec 5.7 02:47:38 13° E 02:48:36 14° ESE 02:51:05 10° SE visible
06 Dec 3.6 04:27:49 33° W 04:27:49 33° W 04:31:52 10° SW visible
07 Dec 2.9 03:50:29 82° ESE 03:50:29 82° ESE 03:55:30 10° S visible
08 Dec 4.8 03:13:09 28° E 03:13:32 28° ESE 03:17:51 10° SSE visible
08 Dec 4.5 04:53:20 16° W 04:53:20 16° W 04:55:26 10° WSW visible
09 Dec 3.3 04:16:00 45° W 04:16:00 45° W 04:20:16 10° SSW visible
10 Dec 3.5 03:38:40 58° ESE 03:38:40 58° ESE 03:43:29 10° S visible
